TimeEDT,TemperatureF,Dew PointF,Humidity,Sea Level PressureIn,VisibilityMPH,Wind Direction,Wind SpeedMPH,Gust SpeedMPH,PrecipitationIn,Events,Conditions,WindDirDegrees,DateUTC
12:58 AM,62.1,57.9,86,30.22,10.0,South,5.8,-,N/A,,Clear,170,2014-04-13 04:58:00
1:58 AM,61.0,57.9,90,30.22,10.0,SSW,4.6,-,N/A,,Partly Cloudy,200,2014-04-13 05:58:00
2:58 AM,57.9,55.9,93,30.20,10.0,Calm,Calm,-,N/A,,Partly Cloudy,0,2014-04-13 06:58:00
3:58 AM,57.9,55.9,93,30.20,10.0,Calm,Calm,-,N/A,,Clear,0,2014-04-13 07:58:00
4:58 AM,57.0,55.0,93,30.21,9.0,Calm,Calm,-,N/A,,Clear,0,2014-04-13 08:58:00
5:58 AM,55.9,55.0,97,30.22,9.0,Calm,Calm,-,N/A,,Clear,0,2014-04-13 09:58:00
6:58 AM,55.9,55.0,97,30.23,3.0,Calm,Calm,-,N/A,,Clear,0,2014-04-13 10:58:00
7:20 AM,57.9,57.0,97,30.24,2.5,Calm,Calm,-,N/A,,Scattered Clouds,0,2014-04-13 11:20:00
7:58 AM,64.0,62.1,93,30.25,3.0,Calm,Calm,-,N/A,,Mostly Cloudy,0,2014-04-13 11:58:00
8:58 AM,70.0,61.0,73,30.26,10.0,SSW,3.5,-,N/A,,Clear,210,2014-04-13 12:58:00
9:58 AM,72.0,61.0,68,30.27,10.0,SW,4.6,-,N/A,,Clear,230,2014-04-13 13:58:00
10:58 AM,73.0,59.0,61,30.26,10.0,South,6.9,-,N/A,,Clear,190,2014-04-13 14:58:00
11:58 AM,73.9,59.0,59,30.25,10.0,South,9.2,-,N/A,,Clear,180,2014-04-13 15:58:00
12:58 PM,75.0,59.0,57,30.23,10.0,South,8.1,-,N/A,,Clear,180,2014-04-13 16:58:00
1:58 PM,75.0,59.0,57,30.23,10.0,SSE,9.2,-,N/A,,Clear,160,2014-04-13 17:58:00
2:58 PM,75.9,60.1,58,30.20,10.0,South,10.4,-,N/A,,Clear,180,2014-04-13 18:58:00
3:58 PM,75.0,60.1,60,30.19,10.0,South,9.2,-,N/A,,Clear,180,2014-04-13 19:58:00
4:58 PM,73.9,60.1,62,30.19,10.0,South,8.1,-,N/A,,Clear,190,2014-04-13 20:58:00
5:58 PM,72.0,60.1,66,30.19,10.0,South,11.5,-,N/A,,Clear,180,2014-04-13 21:58:00
6:58 PM,71.1,59.0,66,30.18,10.0,SSE,6.9,-,N/A,,Clear,160,2014-04-13 22:58:00
7:58 PM,68.0,57.9,70,30.19,10.0,SSE,5.8,-,N/A,,Partly Cloudy,150,2014-04-13 23:58:00
8:58 PM,66.9,61.0,81,30.19,10.0,SSE,8.1,-,N/A,,Partly Cloudy,150,2014-04-14 00:58:00
9:58 PM,68.0,62.1,81,30.18,10.0,SE,8.1,-,N/A,,Scattered Clouds,130,2014-04-14 01:58:00
10:58 PM,66.9,62.1,84,30.18,10.0,SSE,8.1,-,N/A,,Mostly Cloudy,150,2014-04-14 02:58:00
11:58 PM,68.0,61.0,78,30.17,10.0,SSE,8.1,-,0.00,,Overcast,150,2014-04-14 03:58:00